Flag for United Kingdom

Past Weather in Colchester, England, United Kingdom — Yesterday and Last 2 Weeks

Now
50 °F

Cool.


Feels Like: 48 °F
Forecast: 69 / 51 °F
Wind: 6 mph from North

Location: Luton Airport

Current Time: Jul 12, 2020 at 5:42:35 am

Latest Report: Jul 12, 2020 at 4:50 am


Visibility: N/A

Pressure: 30.36 "Hg

Humidity: 76%

Dew Point: 43 °F

Location of ColchesterLocation

Past Weather in Colchester — Graph

°F

Colchester Temperature Yesterday

Maximum temperature yesterday: 66 °F (at 5:50 pm)
Minimum temperature yesterday: 46 °F (at 5:20 am)
Average temperature yesterday: 57 °F

High & Low Weather Summary for the Past Weeks

 TemperatureHumidityPressure
High70 °F (Jul 1, 3:50 pm)100% (Jun 30, 11:20 pm)30.36 "Hg (Jun 30, 11:20 pm)
Low46 °F (Jul 7, 2:20 am)43% (Jul 11, 5:50 pm)29.59 "Hg (Jun 27, 12:50 pm)
Average59 °F78%29.90 "Hg
* Reported Jun 27 4:20 am — Jul 12 4:20 am, Colchester. Weather by CustomWeather, © 2020

Note: Actual official high and low records may vary slightly from our data, if they occured in-between our weather recording intervals... More about our weather records

Colchester Weather History for the Previous 24 Hours

Scroll right to see more
 ConditionsComfort  
Time TempWeatherWind HumidityBarometerVisibility
4:20 am
Sun, Jul 12
50 °FCool.5 mph76%30.36 "HgN/A
3:50 am50 °FCool.3 mph76%30.36 "HgN/A
3:20 am50 °FCool.5 mph76%30.36 "HgN/A
2:50 am50 °FCool.3 mph76%30.36 "HgN/A
2:20 am50 °FCool.5 mph82%30.36 "HgN/A
1:50 am52 °FCool.3 mph77%30.36 "HgN/A
1:20 am52 °FCool.3 mph77%30.36 "HgN/A
12:50 am54 °FCool.5 mph72%30.36 "HgN/A
12:20 am54 °FCool.3 mph72%30.36 "HgN/A
11:50 pm
Sat, Jul 11
54 °FCool.5 mph72%30.36 "HgN/A
11:20 pm55 °FCool.2 mph67%30.36 "HgN/A
10:50 pm55 °FCool.3 mph67%30.36 "HgN/A
10:20 pm57 °FCool.3 mph63%30.36 "HgN/A
9:50 pm57 °FCool.3 mph63%30.36 "HgN/A
9:20 pm59 °FRefreshingly cool.6 mph59%30.36 "HgN/A
8:50 pm61 °FRefreshingly cool.6 mph55%30.36 "HgN/A
7:50 pm61 °FRefreshingly cool.7 mph55%30.33 "HgN/A
7:20 pm63 °FPassing clouds.8 mph49%30.33 "HgN/A
6:50 pm64 °FMild.6 mph49%30.33 "HgN/A
6:20 pm64 °FMild.10 mph49%30.33 "HgN/A
5:50 pm66 °FMild.8 mph43%30.33 "HgN/A
5:20 pm64 °FMild.8 mph46%30.33 "HgN/A
4:50 pm64 °FMild.9 mph49%30.33 "HgN/A
4:20 pm64 °FMild.14 mph49%30.33 "HgN/A
3:50 pm64 °FPartly sunny.12 mph46%30.33 "HgN/A
3:20 pm63 °FMild.12 mph52%30.33 "HgN/A
2:50 pm64 °FPassing clouds.10 mph46%30.33 "HgN/A
1:50 pm61 °FPartly sunny.14 mph52%30.33 "HgN/A
1:20 pm63 °FMild.13 mph52%30.33 "HgN/A
12:50 pm63 °FBroken clouds.12 mph56%30.33 "HgN/A
12:20 pm63 °FPartly sunny.13 mph56%30.33 "HgN/A
11:50 am61 °FScattered clouds.13 mph59%30.33 "HgN/A
11:20 am61 °FScattered clouds.14 mph59%30.33 "HgN/A
10:50 am61 °FBroken clouds.14 mph59%30.30 "HgN/A
10:20 am59 °FPartly sunny.13 mph63%30.30 "HgN/A
9:50 am59 °FPartly sunny.12 mph68%30.30 "HgN/A
9:20 am57 °FPartly sunny.15 mph72%30.30 "HgN/A
8:50 am57 °FPartly sunny.15 mph72%30.30 "HgN/A
8:20 am55 °FCool.12 mph77%30.30 "HgN/A
7:50 am54 °FCool.14 mph82%30.27 "HgN/A
7:20 am52 °FCool.15 mph82%30.27 "HgN/A
6:50 am50 °FCool.14 mph88%30.27 "HgN/A
6:20 am50 °FCool.12 mph82%30.27 "HgN/A
5:50 am48 °FCool.9 mph87%30.27 "HgN/A
5:20 am46 °FCool.7 mph93%30.24 "HgN/A
Weather by CustomWeather, © 2020

See weather overview